User: anonymous   Login
Location: Anuling
(14.1239°N, 120.8922°E)
Time: 02:04:57
(UTC+00:00)
Language:

BlueWalker 3 - Orbit

View from above orbital plane
View from above orbital plane
View from above satellite
View from above satellite

Ground track
Ground track

The orbit is defined by the following mean orbital elements,

1 53807U          26070.49139648 +.00000000 +00000-0 +20180-3 0 00009
2 53807  53.2293 132.2287 0004717 231.4523 128.6060 15.37178618    03
Epoch (UTC): 11 March 2026 11:47:36
Eccentricity: 0.0004717
inclination: 53.2293°
perigee height: 451 km
apogee height: 458 km
right ascension of ascending node: 132.2287°
argument of perigee: 231.4523°
revolutions per day: 15.37178618
mean anomaly at epoch: 128.6060°

The dashed part of the orbit path shows where the satellite is in the earth's shadow,  

DLR